GFSCGP_sfc_rhum_315.txt.gz
RH
73 76 75 50 42 38 36 38 32 35 40 40 46 37 39 95 93 97 96 95 91 89 83 86 83 81 82 82 84 82 85 81 79 82 82 82 82 86 82 78 70 67 68 74
80 84 62 48 39 37 35 37 39 51 46 35 49 39 41 90 94 87 91 94 91 92 91 89 87 86 83 84 83 82 81 81 75 73 77 72 74 82 81 80 73 69 68 73
80 70 57 46 46 39 44 31 45 41 48 44 37 38 42 42 57 73 81 88 88 88 89 90 90 88 86 86 85 82 81 81 76 74 80 83 79 83 89 89 84 78 72 74
74 60 57 54 46 41 43 35 45 54 46 48 38 35 33 39 45 48 74 91 90 91 88 87 90 90 89 86 84 82 83 83 80 78 77 77 78 79 81 87 85 82 78 78
80 67 62 57 45 39 44 48 51 50 54 57 56 47 26 47 42 44 42 63 82 88 86 88 88 85 85 86 90 87 84 84 80 79 75 74 79 78 80 89 88 85 82 80
64 55 56 54 44 40 55 54 60 70 62 70 44 37 29 50 26 26 40 39 52 77 87 84 84 84 88 89 90 89 89 88 85 80 80 78 80 85 88 93 90 87 84 84
65 63 54 43 48 58 51 44 81 78 85 63 68 50 25 31 40 24 23 32 35 43 75 86 92 95 94 95 91 91 89 91 87 83 84 82 79 82 84 86 86 89 86 84
96 96 57 48 40 51 50 37 73 70 85 74 67 60 36 36 34 38 35 29 40 45 47 82 86 88 94 95 91 92 91 89 90 86 85 82 81 82 82 83 83 82 80 80
98 83 58 48 43 39 52 47 47 69 78 68 64 59 44 49 50 50 45 47 44 47 51 58 78 84 89 93 93 91 92 88 90 88 86 84 82 84 85 84 81 82 81 79
76 83 63 55 44 47 37 36 55 65 82 67 69 64 39 51 43 47 52 52 47 50 57 61 73 82 85 87 91 92 91 90 89 88 85 84 82 82 82 83 83 81 74 63
64 73 73 53 57 49 50 43 51 54 69 77 65 55 50 37 42 36 42 43 48 53 57 60 68 79 84 89 93 95 94 92 92 89 86 84 84 86 86 86 81 73 60 54
69 61 96 89 55 47 49 44 50 58 65 73 70 51 41 45 49 46 40 50 59 59 66 78 90 94 93 91 93 96 94 95 91 88 88 90 90 92 90 82 70 57 55 49
90 74 92 93 73 56 49 49 36 43 58 63 57 48 41 48 47 46 47 51 68 72 83 89 94 94 92 92 92 94 96 95 96 98 98 98 94 91 86 74 62 56 49 48
94 89 76 68 72 71 66 56 54 43 53 50 49 49 32 35 39 41 47 62 74 83 87 93 94 91 90 91 92 93 96 90 90 92 94 94 90 86 76 61 57 56 51 52
98 96 89 90 78 66 57 54 58 56 48 53 44 50 38 31 34 36 45 76 84 90 93 93 91 92 94 96 93 92 92 91 88 90 91 90 84 76 69 66 65 61 60 62
96 100 85 94 73 70 67 58 56 51 48 47 52 53 41 34 48 46 46 60 71 82 91 93 91 92 94 94 92 89 90 90 88 90 89 84 80 76 77 73 71 73 77 78
97 98 99 97 91 75 84 69 60 56 58 52 60 54 46 40 40 39 38 59 64 73 81 89 90 90 90 92 86 86 87 87 89 87 85 84 82 82 81 79 77 80 84 84
97 96 98 99 97 96 73 70 56 62 89 88 74 82 67 56 46 40 42 50 56 70 79 83 87 90 86 85 82 82 83 85 88 88 84 83 84 83 82 83 83 84 80 78
84 98 97 98 98 97 78 93 93 93 98 82 90 87 83 77 69 52 59 61 56 57 66 77 84 87 80 82 82 83 84 85 88 90 87 84 82 83 81 80 75 72 69 72
84 98 98 97 97 96 96 70 70 74 97 77 78 81 85 82 77 55 67 62 62 59 75 88 89 81 77 79 79 85 88 86 89 86 84 79 78 78 77 74 72 69 65 66
96 96 97 97 97 97 85 78 62 93 92 81 78 79 82 90 84 74 64 62 65 65 82 88 82 78 76 77 78 87 86 87 81 78 76 75 71 70 66 66 63 62 63 62
92 95 95 95 98 97 87 62 76 84 77 79 79 77 84 79 79 72 66 68 71 79 88 82 80 80 78 76 78 84 85 78 74 72 74 70 68 59 58 62 61 58 62 61
92 92 92 94 91 89 90 92 91 90 89 78 87 80 80 87 81 74 73 72 74 85 85 76 79 81 77 76 75 80 77 71 68 67 66 61 58 56 56 56 57 57 56 58
84 82 94 92 92 79 56 91 71 58 67 70 78 87 79 87 80 78 74 77 82 83 84 82 82 82 82 78 73 73 69 63 61 59 58 57 57 56 53 50 51 55 58 60
83 84 85 86 85 71 92 68 63 64 64 67 67 78 84 86 84 79 78 82 86 84 83 83 84 82 81 76 73 66 61 56 56 55 54 55 56 54 54 55 56 58 64 57
98 96 88 80 67 85 78 69 70 81 78 76 83 82 76 80 88 77 81 83 86 86 82 82 79 78 77 73 68 62 56 53 53 55 55 56 54 54 56 64 69 65 65 65

GFSCGP_sfc_rhum_318.txt.gz
RH
62 61 50 39 25 16 17 17 18 18 27 24 28 26 37 64 54 49 53 70 74 69 55 55 54 53 56 57 58 58 60 58 59 79 72 76 77 78 70 56 58 51 52 56
76 64 40 32 30 26 22 18 17 31 31 21 28 25 28 74 54 49 56 64 74 74 66 64 61 58 58 60 61 59 57 54 57 65 68 66 72 74 68 76 72 55 53 56
68 52 46 40 36 28 22 17 26 19 32 27 30 25 32 44 62 54 49 51 57 66 67 69 67 63 62 64 64 58 56 56 62 67 68 68 74 79 81 78 81 60 53 58
62 51 53 46 38 26 30 21 25 37 27 25 25 18 27 27 46 55 58 57 54 58 58 62 66 66 66 63 62 59 56 57 58 58 58 59 58 56 61 74 81 66 57 58
86 64 58 52 39 29 29 30 35 32 21 28 28 25 11 25 29 36 45 52 52 53 57 58 65 64 63 64 67 63 58 59 59 61 57 57 56 50 52 68 82 76 63 62
60 47 47 41 35 29 37 34 38 42 36 52 19 16 11 20 23 24 28 38 47 48 52 55 57 59 62 66 70 68 62 63 61 63 60 60 62 58 58 66 80 84 71 66
66 60 47 38 41 42 35 28 60 59 79 35 32 29 10 12 12 17 21 24 32 43 50 55 58 63 63 70 72 71 67 66 64 65 66 63 68 63 60 62 67 81 73 67
97 96 52 37 36 39 37 26 48 64 40 32 44 34 16 11 14 16 16 18 22 30 43 52 58 62 66 70 72 70 70 67 66 64 71 71 70 72 66 63 59 64 63 63
95 80 46 37 31 31 38 40 25 44 47 30 26 30 27 26 30 27 24 25 23 25 28 43 54 62 64 70 71 69 69 67 66 67 66 72 72 72 73 69 60 61 60 62
89 85 50 42 33 34 32 24 40 44 63 36 42 26 25 32 26 29 30 31 28 26 26 29 42 57 60 65 69 68 66 67 66 66 64 64 65 67 65 66 63 63 61 65
89 65 68 46 43 38 37 36 30 27 46 53 30 29 26 20 27 22 25 26 26 30 31 30 29 41 55 61 67 75 75 71 67 68 66 65 64 64 61 62 62 62 61 61
87 73 66 62 44 35 28 29 27 36 42 50 42 25 25 28 30 31 25 28 31 35 36 38 36 38 48 57 64 74 81 81 74 69 68 70 66 66 67 66 65 62 61 58
98 82 93 91 67 45 40 32 26 24 31 33 44 25 28 30 32 30 32 34 37 39 45 46 51 56 52 57 60 67 79 83 80 77 75 76 75 74 76 73 76 66 60 57
96 77 58 57 55 44 49 38 32 28 36 30 30 22 21 22 25 27 30 36 40 46 49 52 53 52 52 55 59 64 76 80 86 87 84 86 86 88 88 80 70 67 58 54
97 92 70 66 58 50 44 44 40 39 31 34 26 32 25 22 19 25 28 43 48 50 54 53 53 53 55 60 62 66 74 83 90 97 97 96 92 90 83 75 69 64 60 57
93 99 78 76 59 56 55 47 42 40 36 33 33 32 30 26 28 28 29 40 44 46 50 53 56 57 59 62 68 71 78 89 90 96 97 91 86 80 78 75 70 67 66 65
96 95 99 96 71 72 80 60 50 45 66 69 49 61 64 57 61 56 56 47 44 44 43 45 49 54 56 60 66 71 74 79 86 91 88 86 82 84 83 79 80 79 79 74
94 96 98 100 95 92 78 58 61 72 73 67 66 66 64 64 64 59 56 61 57 54 54 51 48 51 55 60 68 67 72 75 81 85 85 83 83 83 81 83 84 83 81 84
82 92 95 98 93 90 72 79 82 87 86 64 70 63 61 60 55 54 54 60 60 56 55 58 57 58 60 67 68 70 75 77 81 84 83 82 79 81 81 84 83 84 85 86
78 89 96 95 95 96 87 82 72 71 89 62 66 68 70 64 61 42 58 59 57 55 58 62 65 72 71 70 70 74 79 80 82 84 83 79 80 83 83 82 84 84 82 85
79 84 91 92 92 95 82 73 84 92 83 64 64 67 70 78 69 61 57 59 56 56 59 60 69 73 68 68 72 77 79 83 80 80 80 82 82 83 79 79 78 80 81 83
83 88 83 84 93 95 71 60 83 88 72 63 59 63 71 67 63 61 60 62 59 59 61 63 73 73 69 71 74 79 82 80 79 80 82 82 80 76 77 80 80 77 78 77
87 88 83 85 78 66 61 58 78 56 61 56 58 55 61 70 65 62 64 62 60 58 62 62 68 69 69 70 72 81 79 78 79 79 79 74 72 72 70 72 71 69 68 67
73 72 85 79 81 60 49 68 50 46 54 51 52 57 56 64 64 64 63 64 62 60 63 65 69 72 72 71 71 73 72 70 75 75 73 67 67 67 64 62 59 60 60 58
59 65 70 76 72 61 82 67 52 56 53 54 51 54 59 63 67 66 68 69 65 62 64 67 72 73 72 70 72 68 66 66 71 68 66 65 68 63 61 58 56 50 50 48
64 70 58 52 56 74 64 61 62 73 69 63 65 64 59 61 68 70 73 71 70 68 66 69 70 70 69 69 70 66 64 63 64 64 63 65 59 56 55 58 64 58 56 57

GFSCGP_sfc_rhum_321.txt.gz
RH
58 58 48 42 24 15 16 14 14 12 17 25 23 21 28 34 31 32 34 39 44 45 41 40 40 42 45 50 58 68 75 67 57 63 66 66 69 81 76 53 60 51 47 50
75 64 34 29 22 19 16 15 14 19 24 21 18 16 28 37 34 31 33 38 44 45 46 44 44 45 48 54 58 60 62 57 54 59 61 62 70 76 70 62 70 62 50 53
78 42 29 30 31 26 19 16 16 21 28 21 17 22 29 43 36 31 32 36 48 54 48 47 48 47 51 54 56 52 51 52 52 58 59 65 75 79 77 77 74 72 52 53
56 35 36 34 37 21 23 14 14 23 29 23 16 25 24 32 48 40 38 40 46 56 52 48 51 51 54 54 56 54 52 52 51 56 63 71 68 73 66 69 66 76 55 55
82 47 51 43 36 20 22 20 21 27 25 19 24 28 12 18 40 47 43 40 40 47 52 50 53 53 51 54 62 60 54 53 53 62 60 64 61 57 54 64 70 73 66 57
69 37 42 36 28 25 28 27 27 28 28 54 18 16 14 16 20 29 34 38 39 38 43 46 49 52 54 59 64 65 58 56 56 60 60 58 62 58 54 65 74 76 77 67
66 56 40 33 37 35 28 27 61 59 79 35 14 18 12 9 13 15 24 30 36 38 39 44 48 55 56 63 67 67 62 59 56 58 60 58 59 58 57 62 68 73 75 74
96 95 52 35 33 37 31 24 46 60 38 27 32 25 14 9 9 11 15 21 29 37 36 43 48 54 58 62 67 67 65 61 58 57 61 59 58 59 57 60 61 66 66 66
92 82 43 34 28 28 35 32 16 30 28 26 23 18 18 14 18 16 14 20 24 31 38 42 46 51 56 60 66 67 66 62 59 59 59 58 57 60 63 61 58 63 60 59
94 89 48 39 32 30 28 22 36 33 59 32 22 21 22 17 20 21 22 22 23 25 31 38 43 48 53 56 61 64 63 64 61 60 59 58 60 62 65 65 64 63 61 60
96 62 77 42 42 38 37 32 26 24 30 53 31 26 15 17 19 20 21 23 24 23 24 27 30 40 49 52 58 63 64 64 63 61 61 61 61 63 64 68 66 64 62 60
95 84 72 64 37 29 27 27 24 34 33 38 42 30 22 24 23 23 17 20 20 26 28 29 27 26 39 51 55 64 65 64 62 60 62 64 62 62 65 67 66 64 63 61
98 82 87 93 59 46 40 28 23 21 21 29 39 24 24 28 27 25 27 30 30 30 32 32 34 34 28 41 52 60 66 70 65 62 65 67 68 68 66 66 64 61 63 64
97 97 63 52 52 40 48 34 27 25 31 27 24 23 24 25 24 24 28 31 33 37 39 39 39 39 38 38 44 52 62 72 72 71 70 70 74 70 68 68 69 69 66 64
95 100 82 53 46 37 40 41 34 33 27 29 22 21 18 48 37 46 46 35 35 37 40 42 44 42 41 45 47 49 55 70 73 79 82 82 79 75 72 75 78 73 69 64
85 97 98 76 48 49 46 39 38 34 30 27 25 26 52 45 46 50 51 47 47 45 44 46 43 42 47 48 52 52 57 69 73 84 90 90 95 94 92 83 78 73 72 67
90 95 99 96 58 70 82 80 73 48 62 63 49 55 54 54 55 56 58 56 55 52 49 47 46 48 47 45 50 58 60 71 85 95 98 98 96 94 89 79 75 76 72 70
92 91 96 100 95 91 74 56 58 68 65 58 58 55 54 56 56 52 55 59 58 56 54 51 51 53 53 54 52 58 63 71 90 96 94 92 93 91 86 82 81 79 79 80
73 94 94 96 92 87 79 74 80 83 77 57 62 56 56 55 50 57 50 53 56 55 55 54 54 57 56 59 56 60 67 74 84 93 94 91 91 91 91 93 91 88 89 89
69 84 97 94 95 96 80 75 70 71 84 57 56 58 61 58 62 60 54 51 52 54 54 57 58 58 65 64 61 67 72 74 77 86 89 87 88 88 91 91 91 89 87 88
73 82 90 89 95 94 87 69 82 92 81 62 57 52 55 64 59 53 51 51 49 52 55 52 54 60 64 64 65 74 74 77 75 83 83 84 83 85 84 85 86 88 88 88
80 88 78 81 92 94 62 55 81 82 55 47 49 50 54 50 50 48 47 52 52 55 56 53 56 60 61 65 70 75 76 77 80 81 84 86 84 81 81 85 85 85 87 92
85 79 74 82 78 60 47 52 62 50 50 47 50 48 50 52 50 49 52 51 52 54 57 54 56 60 61 63 67 76 78 82 83 84 86 85 81 79 80 84 86 87 86 89
75 75 81 78 75 56 51 61 50 43 50 47 46 50 49 52 50 51 52 54 55 58 60 58 59 64 67 65 66 71 77 78 81 85 84 82 83 85 83 82 83 86 87 87
60 61 59 70 72 64 73 64 50 54 50 50 48 50 52 53 55 52 55 57 60 61 63 63 66 67 68 66 69 69 74 76 83 82 79 80 82 82 79 77 78 78 77 76
60 61 51 43 51 64 53 54 58 67 65 60 61 61 55 54 57 57 60 60 62 66 69 68 66 65 67 68 70 70 70 76 78 79 76 78 76 73 72 69 85 71 68 67

GFSCGP_sfc_rhum_324.txt.gz
RH
63 63 56 40 31 24 22 20 22 26 26 37 42 38 43 42 42 48 54 64 64 61 52 48 49 51 64 73 79 80 80 80 77 88 89 92 94 93 88 72 61 56 61 64
74 68 44 35 38 31 21 20 22 26 26 34 35 35 40 44 43 42 47 54 58 56 53 52 51 52 64 72 80 80 79 78 82 82 86 87 92 93 86 86 69 64 62 69
71 53 37 35 41 31 25 20 23 40 36 31 32 33 48 46 44 41 44 49 53 56 55 54 57 60 64 64 69 78 80 79 76 78 81 86 93 94 88 85 84 79 64 69
63 46 38 40 40 35 32 20 24 39 40 48 30 46 49 56 55 47 45 51 55 57 54 54 56 62 64 69 69 70 75 74 66 72 78 87 84 93 92 85 87 87 70 69
86 54 48 45 44 33 31 24 32 38 40 32 24 40 37 54 66 56 51 57 60 65 62 56 58 57 63 66 70 60 69 68 69 73 75 82 86 84 85 88 83 91 83 75
71 47 35 37 34 32 29 32 38 43 44 75 33 34 27 40 56 54 54 52 57 64 64 61 57 57 63 72 76 74 76 70 69 73 75 79 83 82 83 91 95 95 92 78
64 61 46 35 54 48 33 33 82 76 86 72 27 33 21 17 30 46 49 50 51 57 64 64 64 64 65 71 76 75 73 71 67 76 74 75 76 76 74 82 93 94 94 87
99 95 51 36 50 57 35 30 76 73 68 49 36 41 23 12 16 25 36 43 48 56 56 61 62 66 65 66 72 75 74 70 66 73 76 71 76 70 74 73 84 88 87 86
88 96 53 38 34 34 43 42 31 40 30 42 40 31 21 21 24 20 21 38 48 53 57 57 58 64 66 67 71 75 76 72 67 68 72 70 72 75 73 77 76 82 82 80
97 96 66 44 34 34 36 27 48 48 63 49 42 32 35 21 27 30 28 27 42 52 53 59 60 67 67 68 72 75 76 75 70 67 67 68 68 71 76 76 74 76 75 74
98 79 84 45 47 42 49 39 37 40 61 77 54 42 27 22 22 31 31 30 29 33 48 58 64 68 72 75 77 78 79 78 74 69 67 68 69 69 74 75 71 70 68 67
98 98 93 68 48 40 36 37 33 56 46 60 65 50 35 40 39 40 39 37 40 38 36 38 46 61 74 77 76 78 79 78 74 70 69 70 70 73 79 78 75 69 66 68
99 94 95 95 65 56 52 36 30 30 34 44 69 49 39 39 52 50 48 50 50 46 50 51 51 49 44 71 80 82 82 80 78 75 74 75 76 77 79 79 77 73 69 72
97 99 95 85 68 53 63 44 36 33 48 41 37 44 62 58 58 58 56 52 50 50 50 54 60 60 57 56 59 72 84 86 86 81 77 79 79 78 76 77 79 77 71 76
91 100 98 84 56 49 49 49 40 40 34 42 31 47 62 60 59 60 57 53 53 53 52 52 53 56 58 64 66 63 66 80 84 80 85 78 77 77 76 77 78 79 79 78
87 96 98 96 57 52 55 56 48 40 41 35 33 76 56 54 52 55 62 59 60 59 57 55 54 54 56 56 61 64 72 75 87 88 85 89 92 89 83 85 85 90 88 84
95 98 97 99 84 75 91 80 70 68 63 65 68 73 59 59 59 58 64 61 61 61 60 59 58 57 59 61 59 69 74 78 89 90 89 95 96 97 97 95 91 88 82 77
96 96 98 99 99 97 82 63 62 70 66 61 62 59 59 59 58 55 56 59 59 58 60 60 60 60 61 61 69 71 76 82 92 93 98 98 99 99 96 94 91 88 81 78
86 96 97 98 98 93 78 79 86 88 81 61 64 57 54 54 56 63 50 52 55 55 56 60 60 61 59 63 70 74 79 86 94 97 98 97 97 97 95 95 90 87 88 85
62 91 98 98 98 96 93 84 72 81 92 65 65 61 58 54 68 66 49 46 46 51 53 59 61 59 59 62 64 76 83 89 90 93 96 94 94 95 96 93 92 91 89 89
89 92 97 97 97 96 91 73 84 93 93 57 48 51 54 65 57 49 45 44 44 47 52 54 57 60 59 60 66 78 84 89 88 86 94 94 93 95 93 94 93 94 94 94
95 94 96 94 98 95 74 63 91 85 54 51 52 52 56 54 51 48 46 48 48 51 53 54 61 62 59 62 68 77 84 83 79 90 93 94 93 90 92 95 96 95 94 96
98 94 94 89 86 67 60 67 68 54 58 53 58 55 54 56 53 51 52 51 50 51 55 57 62 64 63 63 66 75 78 78 90 93 95 95 92 89 90 93 95 96 94 94
96 91 96 85 86 75 54 72 54 50 53 52 53 58 55 60 56 56 55 54 54 55 59 59 64 70 69 63 63 68 70 74 89 94 95 93 90 90 90 88 89 92 94 96
91 88 85 89 90 86 87 81 66 64 54 55 55 56 58 60 62 60 60 59 59 60 61 64 72 71 70 66 67 67 69 77 92 93 92 91 90 92 90 88 88 88 86 85
86 82 83 78 79 87 90 84 76 84 77 72 72 72 66 66 68 65 68 64 64 66 67 70 71 73 73 72 73 71 71 75 86 92 88 88 90 89 88 89 97 85 84 85